Location: Andiroba
(19.8650°S, 43.9258°W)
Time: 00:41:36
(UTC+00:00)

CORIOLIS - Pass Details

Date: 15 June 2024
Orbit: 816 x 838 km, 98.7° (Epoch: 24 July)

Event Time Altitude Azimuth Distance (km) Brightness Sun altitude
Rises 08:34:50 0° 15° (NNE) 3,324 7.8 -12.4°
Reaches altitude 10° 08:37:10 10° 15° (NNE) 2,400 7.1 -11.9°
Maximum altitude 08:42:29 85° 103° (ESE) 829 4.2 -10.8°
Drops below altitude 10° 08:47:52 10° 191° (S) 2,433 6.3 -9.6°
Sets 08:50:14 0° 191° (S) 3,374 7.0 -9.1°
